,,Stat5,,Stat1,,Stat2,,Stat3,,Stat4,,Wind1,,Wind1,
time,status,PA1M_AVG,status,PR1M_SUM,status,RH1M_AVG,status,SR1M_AVG,status,TA1M_AVG,status,W1dAve1m,status,W1sAve1m,
2002-05-08, 00:00:01,VALID,916.914,VALID,0.2,VALID,99.3428,VALID,0,VALID,19.9341,VALID,261,VALID,1.78758,
2002-05-08, 00:01:00,VALID,916.915,VALID,0.4,VALID,99.353,VALID,0.0169808,VALID,19.9373,VALID,325,VALID,0.750446,
2002-05-08, 00:02:00,VALID,916.932,VALID,0.2,VALID,99.3594,VALID,0.0169808,VALID,19.9328,VALID,22,VALID,0.937109,
2002-05-08, 00:03:00,VALID,916.972,VALID,0,VALID,99.3721,VALID,0,VALID,19.9634,VALID,44,VALID,1.22027,
2002-05-08, 00:04:00,VALID,916.979,VALID,0.4,VALID,99.3759,VALID,0.0169808,VALID,19.9632,VALID,83,VALID,0.721628,
2002-05-08, 00:05:00,VALID,916.975,VALID,0.4,VALID,99.381,VALID,0.0339617,VALID,19.9624,VALID,68,VALID,1.71214,
2002-05-08, 00:06:00,VALID,916.991,VALID,0,VALID,99.3772,VALID,0.0679233,VALID,19.9502,VALID,116,VALID,1.52284,
2002-05-08, 00:07:00,VALID,916.953,VALID,0.2,VALID,99.3784,VALID,0.0339617,VALID,19.9306,VALID,15,VALID,3.16146,
2002-05-08, 00:08:00,VALID,917.002,VALID,0.2,VALID,99.3823,VALID,0.0339617,VALID,19.9013,VALID,27,VALID,3.24902,
2002-05-08, 00:09:00,VALID,916.873,VALID,0,VALID,99.3721,VALID,0.0509425,VALID,19.8334,VALID,284,VALID,2.36599,
2002-05-08, 00:10:00,VALID,916.975,VALID,0,VALID,99.3441,VALID,0.0679233,VALID,19.7594,VALID,32,VALID,2.33779,
2002-05-08, 00:11:00,VALID,917.001,VALID,0,VALID,99.3123,VALID,0.0169808,VALID,19.688,VALID,297,VALID,2.55489,
2002-05-08, 00:12:00,VALID,917.017,VALID,0.2,VALID,99.2805,VALID,0.0679233,VALID,19.6264,VALID,118,VALID,2.15913,
2002-05-08, 00:13:00,VALID,917.017,VALID,0,VALID,99.2831,VALID,0.0509425,VALID,19.6165,VALID,127,VALID,1.70072,
2002-05-08, 00:14:00,VALID,917.086,VALID,0,VALID,99.2945,VALID,0.0169808,VALID,19.6269,VALID,12,VALID,1.72461,
2002-05-08, 00:15:00,VALID,917.101,VALID,0,VALID,99.306,VALID,0.0339617,VALID,19.5971,VALID,2,VALID,2.36445,
2002-05-08, 00:16:00,VALID,917.149,VALID,0,VALID,99.3034,VALID,0.0169808,VALID,19.5976,VALID,24,VALID,2.21723,
2002-05-08, 00:17:00,VALID,917.183,VALID,0,VALID,99.311,VALID,0.0169808,VALID,19.575,VALID,11,VALID,1.77539,
2002-05-08, 00:18:00,VALID,917.212,VALID,0,VALID,99.3098,VALID,0.0169808,VALID,19.5722,VALID,27,VALID,1.86678,
2002-05-08, 00:19:01,VALID,917.126,VALID,0,VALID,99.311,VALID,0,VALID,19.5206,VALID,354,VALID,2.48522,
2002-05-08, 00:20:00,VALID,917.205,VALID,0,VALID,99.3098,VALID,0.0169808,VALID,19.5178,VALID,71,VALID,2.10085,
2002-05-08, 00:21:00,VALID,917.226,VALID,0,VALID,99.2767,VALID,0.0169808,VALID,19.4589,VALID,117,VALID,1.53824,
2002-05-08, 00:22:00,VALID,917.219,VALID,0,VALID,99.2665,VALID,0.0339617,VALID,19.4299,VALID,257,VALID,1.57689,
2002-05-08, 00:23:00,VALID,917.22,VALID,0,VALID,99.25,VALID,0,VALID,19.4043,VALID,75,VALID,1.57973,
2002-05-08, 00:24:00,VALID,917.23,VALID,0.2,VALID,99.2589,VALID,0.0169808,VALID,19.3913,VALID,53,VALID,2.10056,
2002-05-08, 00:25:01,VALID,917.156,VALID,0,VALID,99.2602,VALID,0.0169808,VALID,19.3717,VALID,22,VALID,3.854,
2002-05-08, 00:26:00,VALID,917.166,VALID,0,VALID,99.2615,VALID,0.0169808,VALID,19.3526,VALID,21,VALID,3.95376,
2002-05-08, 00:27:01,VALID,917.181,VALID,0,VALID,99.2716,VALID,0.0339617,VALID,19.3394,VALID,340,VALID,1.42537,
2002-05-08, 00:28:00,VALID,917.181,VALID,0,VALID,99.264,VALID,0,VALID,19.3208,VALID,348,VALID,2.35238,
2002-05-08, 00:29:01,VALID,917.141,VALID,0,VALID,99.2716,VALID,0.0339617,VALID,19.3044,VALID,16,VALID,2.387,
2002-05-08, 00:30:00,VALID,917.155,VALID,0,VALID,99.2704,VALID,0.0339617,VALID,19.288,VALID,14,VALID,2.87408,
2002-05-08, 00:31:01,VALID,917.141,VALID,0,VALID,99.2487,VALID,0,VALID,19.2557,VALID,1,VALID,3.04307,
2002-05-08, 00:32:00,VALID,917.145,VALID,0,VALID,99.2564,VALID,0,VALID,19.2465,VALID,25,VALID,2.19692,
2002-05-08, 00:33:00,VALID,917.209,VALID,0,VALID,99.2716,VALID,0,VALID,19.2398,VALID,11,VALID,1.85067,
2002-05-08, 00:34:00,VALID,917.181,VALID,0,VALID,99.2691,VALID,0,VALID,19.2437,VALID,27,VALID,2.54928,
2002-05-08, 00:35:00,VALID,917.168,VALID,0,VALID,99.2805,VALID,-0.0169808,VALID,19.2432,VALID,323,VALID,0.850718,
2002-05-08, 00:36:00,VALID,917.151,VALID,0,VALID,99.2818,VALID,0,VALID,19.2273,VALID,1,VALID,1.77508,
2002-05-08, 00:37:00,VALID,917.121,VALID,0,VALID,99.2742,VALID,0,VALID,19.1883,VALID,20,VALID,2.1221,
2002-05-08, 00:38:01,VALID,917.066,VALID,0,VALID,99.2754,VALID,0,VALID,19.1724,VALID,10,VALID,2.62039,
2002-05-08, 00:39:00,VALID,917.071,VALID,0,VALID,99.2462,VALID,0,VALID,19.1175,VALID,289,VALID,0.93727,
2002-05-08, 00:40:00,VALID,917.064,VALID,0,VALID,99.2551,VALID,0.0169808,VALID,19.117,VALID,22,VALID,1.68229,
2002-05-08, 00:41:01,VALID,916.99,VALID,0,VALID,99.2576,VALID,0.0339617,VALID,19.1076,VALID,11,VALID,1.77775,
2002-05-08, 00:42:00,VALID,916.983,VALID,0,VALID,99.2169,VALID,0.0169808,VALID,19.0591,VALID,18,VALID,2.66309,
2002-05-08, 00:43:00,VALID,916.971,VALID,0,VALID,99.2131,VALID,0.0339617,VALID,19.0591,VALID,17,VALID,2.35508,
2002-05-08, 00:44:00,VALID,916.981,VALID,0,VALID,99.1915,VALID,0,VALID,19.0402,VALID,12,VALID,2.09939,
2002-05-08, 00:45:01,VALID,916.924,VALID,0,VALID,99.1483,VALID,-0.0169808,VALID,19.0042,VALID,5,VALID,3.10569,
2002-05-08, 00:46:00,VALID,916.893,VALID,0,VALID,99.0885,VALID,-0.101885,VALID,18.9761,VALID,30,VALID,2.90871,
2002-05-08, 00:47:00,VALID,916.905,VALID,0,VALID,99.1318,VALID,-0.135847,VALID,18.9828,VALID,19,VALID,3.10241,
2002-05-08, 00:48:01,VALID,916.878,VALID,0,VALID,99.1038,VALID,-0.101885,VALID,18.9634,VALID,56,VALID,2.04091,
2002-05-08, 00:49:00,VALID,916.894,VALID,0,VALID,99.0949,VALID,-0.0849042,VALID,18.9507,VALID,61,VALID,1.08799,
2002-05-08, 00:50:01,VALID,916.902,VALID,0,VALID,99.1139,VALID,-0.0849042,VALID,18.9569,VALID,324,VALID,1.1311,
2002-05-08, 00:51:00,VALID,916.895,VALID,0,VALID,99.0872,VALID,-0.0849042,VALID,18.9445,VALID,300,VALID,1.6188,
2002-05-08, 00:52:00,VALID,916.884,VALID,0,VALID,99.0822,VALID,-0.0509425,VALID,18.9318,VALID,357,VALID,2.29096,
2002-05-08, 00:53:00,VALID,916.839,VALID,0,VALID,99.0783,VALID,-0.0849042,VALID,18.9055,VALID,20,VALID,2.76907,
2002-05-08, 00:54:00,VALID,916.814,VALID,0,VALID,99.0847,VALID,-0.0849042,VALID,18.9057,VALID,341,VALID,1.33147,
2002-05-08, 00:55:00,VALID,916.814,VALID,0,VALID,99.1038,VALID,-0.0679233,VALID,18.8956,VALID,74,VALID,0.988181,
2002-05-08, 00:56:01,VALID,916.803,VALID,0,VALID,99.1025,VALID,-0.0509425,VALID,18.8893,VALID,9,VALID,2.00211,
2002-05-08, 00:57:00,VALID,916.747,VALID,0,VALID,99.1216,VALID,-0.0509425,VALID,18.9027,VALID,27,VALID,2.22081,
2002-05-08, 00:58:00,VALID,916.752,VALID,0,VALID,99.1279,VALID,-0.0849042,VALID,18.8921,VALID,17,VALID,1.45714,
2002-05-08, 00:59:01,VALID,916.722,VALID,0,VALID,99.147,VALID,-0.118866,VALID,18.8958,VALID,344,VALID,0.822917,
2002-05-08, 01:00:00,VALID,916.732,VALID,0,VALID,99.1432,VALID,-0.0849042,VALID,18.8797,VALID,16,VALID,1.66153,
2002-05-08, 01:01:00,VALID,916.678,VALID,0,VALID,99.1546,VALID,-0.101885,VALID,18.8767,VALID,16,VALID,1.57161,
2002-05-08, 01:02:00,VALID,916.66,VALID,0,VALID,99.1674,VALID,-0.0849042,VALID,18.8734,VALID,15,VALID,1.32792,
2002-05-08, 01:03:00,VALID,916.647,VALID,0.2,VALID,99.1915,VALID,-0.0679233,VALID,18.8767,VALID,18,VALID,1.89297,
2002-05-08, 01:04:00,VALID,916.625,VALID,0,VALID,99.1902,VALID,-0.0849042,VALID,18.8866,VALID,25,VALID,2.46582,
2002-05-08, 01:05:00,VALID,916.584,VALID,0,VALID,99.1852,VALID,-0.0849042,VALID,18.8774,VALID,21,VALID,2.15929,
2002-05-08, 01:06:00,VALID,916.543,VALID,0,VALID,99.1979,VALID,-0.0679233,VALID,18.8704,VALID,23,VALID,2.4579,
2002-05-08, 01:07:00,VALID,916.529,VALID,0,VALID,99.203,VALID,-0.0849042,VALID,18.8506,VALID,353,VALID,1.51027,
2002-05-08, 01:08:00,VALID,916.54,VALID,0,VALID,99.2093,VALID,-0.0509425,VALID,18.8603,VALID,18,VALID,1.57221,
2002-05-08, 01:09:01,VALID,916.5,VALID,0,VALID,99.2169,VALID,0,VALID,18.8395,VALID,328,VALID,1.33861,
2002-05-08, 01:10:00,VALID,916.506,VALID,0,VALID,99.2119,VALID,0.0509425,VALID,18.8303,VALID,18,VALID,2.6398,
2002-05-08, 01:11:01,VALID,916.468,VALID,0,VALID,99.2233,VALID,0,VALID,18.8236,VALID,23,VALID,2.53906,
2002-05-08, 01:12:00,VALID,916.443,VALID,0,VALID,99.2462,VALID,0,VALID,18.8397,VALID,24,VALID,2.10892,
2002-05-08, 01:13:00,VALID,916.438,VALID,0,VALID,99.2437,VALID,0.0169808,VALID,18.8561,VALID,25,VALID,2.07221,
2002-05-08, 01:14:00,VALID,916.422,VALID,0,VALID,99.2525,VALID,0,VALID,18.8365,VALID,17,VALID,1.70358,
2002-05-08, 01:15:00,VALID,916.366,VALID,0,VALID,99.2462,VALID,0,VALID,18.8266,VALID,23,VALID,2.69018,
2002-05-08, 01:16:00,VALID,916.356,VALID,0,VALID,99.2411,VALID,0.0169808,VALID,18.8176,VALID,20,VALID,2.44411,
2002-05-08, 01:17:00,VALID,916.356,VALID,0,VALID,99.2424,VALID,0.0169808,VALID,18.8213,VALID,21,VALID,1.57791,
2002-05-08, 01:18:00,VALID,916.329,VALID,0,VALID,99.2576,VALID,0,VALID,18.8245,VALID,23,VALID,1.62644,
2002-05-08, 01:19:00,VALID,916.291,VALID,0,VALID,99.2704,VALID,0,VALID,18.837,VALID,20,VALID,1.47009,
2002-05-08, 01:20:01,VALID,916.272,VALID,0,VALID,99.2818,VALID,0,VALID,18.8305,VALID,18,VALID,1.96294,
2002-05-08, 01:21:00,VALID,916.241,VALID,0,VALID,99.2805,VALID,0.0169808,VALID,18.8402,VALID,15,VALID,1.1721,
2002-05-08, 01:22:00,VALID,916.234,VALID,0,VALID,99.2729,VALID,0.0169808,VALID,18.8374,VALID,21,VALID,2.43685,
2002-05-08, 01:23:00,VALID,916.174,VALID,0,VALID,99.2678,VALID,0,VALID,18.8079,VALID,24,VALID,1.60403,
2002-05-08, 01:24:00,VALID,916.183,VALID,0,VALID,99.2564,VALID,0,VALID,18.8084,VALID,24,VALID,2.11328,
2002-05-08, 01:25:00,VALID,916.151,VALID,0,VALID,99.2653,VALID,0.0169808,VALID,18.8051,VALID,14,VALID,2.06289,
2002-05-08, 01:26:00,VALID,916.114,VALID,0,VALID,99.2576,VALID,-0.0169808,VALID,18.792,VALID,13,VALID,0.984375,
2002-05-08, 01:27:01,VALID,916.153,VALID,0,VALID,99.2589,VALID,0,VALID,18.8019,VALID,22,VALID,1.36024,
2002-05-08, 01:28:00,VALID,916.152,VALID,0,VALID,99.2564,VALID,0,VALID,18.7922,VALID,30,VALID,2.14241,
2002-05-08, 01:29:00,VALID,916.146,VALID,0,VALID,99.2589,VALID,0,VALID,18.7984,VALID,55,VALID,1.24641,
2002-05-08, 01:30:01,VALID,916.117,VALID,0,VALID,99.2602,VALID,0,VALID,18.8183,VALID,16,VALID,1.51624,
2002-05-08, 01:31:00,VALID,916.097,VALID,0,VALID,99.2589,VALID,0,VALID,18.818,VALID,331,VALID,0.879523,
2002-05-08, 01:32:01,VALID,916.113,VALID,0,VALID,99.2627,VALID,0,VALID,18.8076,VALID,15,VALID,0.856898,
2002-05-08, 01:33:00,VALID,916.081,VALID,0,VALID,99.2487,VALID,-0.0169808,VALID,18.8084,VALID,295,VALID,0.788603,
2002-05-08, 01:34:01,VALID,916.075,VALID,0,VALID,99.2309,VALID,0.0169808,VALID,18.8084,VALID,40,VALID,0.911951,
2002-05-08, 01:35:00,VALID,916.083,VALID,0,VALID,99.2373,VALID,0,VALID,18.8114,VALID,22,VALID,1.1312,
2002-05-08, 01:36:01,VALID,916.06,VALID,0,VALID,99.2424,VALID,0,VALID,18.8017,VALID,336,VALID,0.871652,
2002-05-08, 01:37:01,VALID,916.075,VALID,0,VALID,99.2335,VALID,0,VALID,18.795,VALID,12,VALID,0.707131,
2002-05-08, 01:38:00,VALID,916.094,VALID,0,VALID,99.2322,VALID,-0.0169808,VALID,18.7982,VALID,42,VALID,1.03442,
2002-05-08, 01:39:00,VALID,916.064,VALID,0,VALID,99.236,VALID,0.0169808,VALID,18.8049,VALID,349,VALID,1.00966,
2002-05-08, 01:40:00,VALID,916.101,VALID,0,VALID,99.25,VALID,0.0169808,VALID,18.8049,VALID,326,VALID,0.621429,
2002-05-08, 01:41:01,VALID,916.076,VALID,0,VALID,99.2398,VALID,0.0339617,VALID,18.8116,VALID,235,VALID,1.03205,
2002-05-08, 01:42:00,VALID,916.055,VALID,0,VALID,99.2309,VALID,0.0339617,VALID,18.782,VALID,236,VALID,0.847656,
2002-05-08, 01:43:00,VALID,916.009,VALID,0,VALID,99.2424,VALID,0.0339617,VALID,18.7984,VALID,346,VALID,0.840061,
2002-05-08, 01:44:00,VALID,915.944,VALID,0,VALID,99.2525,VALID,0.0509425,VALID,18.795,VALID,316,VALID,1.06394,
2002-05-08, 01:45:00,VALID,915.969,VALID,0,VALID,99.2373,VALID,0.0169808,VALID,18.7975,VALID,67,VALID,1.04961,
2002-05-08, 01:46:00,VALID,915.923,VALID,0,VALID,99.2271,VALID,0,VALID,18.7922,VALID,26,VALID,1.04219,
2002-05-08, 01:47:00,VALID,915.921,VALID,0,VALID,99.2157,VALID,0.0169808,VALID,18.8014,VALID,84,VALID,0.726345,
2002-05-08, 01:48:01,VALID,915.922,VALID,0,VALID,99.2182,VALID,0.0339617,VALID,18.8213,VALID,222,VALID,1.29253,
2002-05-08, 01:49:01,VALID,915.912,VALID,0,VALID,99.2144,VALID,0.0169808,VALID,18.834,VALID,328,VALID,0.54933,
2002-05-08, 01:50:01,VALID,915.941,VALID,0,VALID,99.222,VALID,0.0169808,VALID,18.8439,VALID,33,VALID,0.562922,
2002-05-08, 01:51:01,VALID,915.954,VALID,0,VALID,99.2195,VALID,0.0339617,VALID,18.8697,VALID,359,VALID,0.459704,
2002-05-08, 01:52:00,VALID,915.963,VALID,0,VALID,99.222,VALID,0.0169808,VALID,18.876,VALID,341,VALID,0.77611,
2002-05-08, 01:53:01,VALID,915.971,VALID,0,VALID,99.2068,VALID,0.0339617,VALID,18.8921,VALID,55,VALID,0.813453,
2002-05-08, 01:54:01,VALID,915.937,VALID,0,VALID,99.2055,VALID,0.0169808,VALID,18.8757,VALID,244,VALID,0.637868,
2002-05-08, 01:55:01,VALID,915.923,VALID,0,VALID,99.2144,VALID,0.0509425,VALID,18.876,VALID,291,VALID,1.25866,
2002-05-08, 01:56:00,VALID,915.855,VALID,0,VALID,99.2195,VALID,0,VALID,18.876,VALID,237,VALID,0.754136,
2002-05-08, 01:57:00,VALID,915.855,VALID,0,VALID,99.2208,VALID,0.0339617,VALID,18.8827,VALID,230,VALID,0.410937,
2002-05-08, 01:58:01,VALID,915.827,VALID,0,VALID,99.236,VALID,0.0169808,VALID,18.8819,VALID,4,VALID,1.33574,
2002-05-08, 01:59:01,VALID,915.817,VALID,0,VALID,99.2462,VALID,0,VALID,18.8953,VALID,24,VALID,1.14675,
2002-05-08, 02:00:01,VALID,915.807,VALID,0,VALID,99.2576,VALID,0,VALID,18.9087,VALID,46,VALID,0.641242,
2002-05-08, 02:01:01,VALID,915.815,VALID,0,VALID,99.2487,VALID,0,VALID,18.9117,VALID,87,VALID,0.448438,
2002-05-08, 02:02:01,VALID,915.776,VALID,0,VALID,99.2551,VALID,0.0339617,VALID,18.902,VALID,29,VALID,1.68169,
2002-05-08, 02:03:01,VALID,915.706,VALID,0,VALID,99.2704,VALID,0.0339617,VALID,18.9018,VALID,19,VALID,0.72955,
2002-05-08, 02:04:00,VALID,915.657,VALID,0,VALID,99.2831,VALID,0.0679233,VALID,18.9179,VALID,22,VALID,0.426432,
2002-05-08, 02:05:01,VALID,915.666,VALID,0,VALID,99.2958,VALID,0.0339617,VALID,18.9145,VALID,159,VALID,0.367188,
2002-05-08, 02:06:01,VALID,915.638,VALID,0,VALID,99.3047,VALID,0.0509425,VALID,18.9239,VALID,305,VALID,1.28164,
2002-05-08, 02:07:01,VALID,915.59,VALID,0,VALID,99.3327,VALID,0,VALID,18.9505,VALID,247,VALID,0.782617,
2002-05-08, 02:08:01,VALID,915.539,VALID,0,VALID,99.3403,VALID,-0.0339617,VALID,18.9674,VALID,27,VALID,1.33507,
2002-05-08, 02:09:01,VALID,915.531,VALID,0,VALID,99.3543,VALID,-0.101885,VALID,18.981,VALID,8,VALID,0.757813,
2002-05-08, 02:10:01,VALID,915.509,VALID,0,VALID,99.353,VALID,-0.101885,VALID,18.9939,VALID,18,VALID,0.749777,
2002-05-08, 02:11:01,VALID,915.501,VALID,0,VALID,99.3657,VALID,-0.118866,VALID,19.0098,VALID,106,VALID,0.358319,
2002-05-08, 02:12:01,VALID,915.488,VALID,0,VALID,99.3683,VALID,-0.101885,VALID,19.0128,VALID,88,VALID,0.682771,
2002-05-08, 02:13:01,VALID,915.448,VALID,0,VALID,99.3721,VALID,-0.0679233,VALID,19.0294,VALID,6,VALID,1.89597,
2002-05-08, 02:14:01,VALID,915.42,VALID,0,VALID,99.3873,VALID,-0.101885,VALID,19.0297,VALID,354,VALID,1.33346,
2002-05-08, 02:15:01,VALID,915.427,VALID,0,VALID,99.3912,VALID,-0.118866,VALID,19.0424,VALID,333,VALID,0.458869,
2002-05-08, 02:16:01,VALID,915.439,VALID,0,VALID,99.3937,VALID,-0.101885,VALID,19.0387,VALID,37,VALID,0.647804,
2002-05-08, 02:17:01,VALID,915.426,VALID,0,VALID,99.3924,VALID,-0.101885,VALID,19.0421,VALID,49,VALID,1.07468,
2002-05-08, 02:18:01,VALID,915.392,VALID,0,VALID,99.409,VALID,-0.101885,VALID,19.0483,VALID,24,VALID,0.970536,
2002-05-08, 02:19:01,VALID,915.391,VALID,0,VALID,99.4204,VALID,-0.101885,VALID,19.0647,VALID,14,VALID,0.736579,
2002-05-08, 02:20:01,VALID,915.377,VALID,0,VALID,99.4191,VALID,-0.0679233,VALID,19.0712,VALID,20,VALID,0.30152,
2002-05-08, 02:21:01,VALID,915.372,VALID,0,VALID,99.4306,VALID,-0.101885,VALID,19.071,VALID,23,VALID,0.466452,
2002-05-08, 02:22:01,VALID,915.377,VALID,0,VALID,99.4382,VALID,-0.0849042,VALID,19.0844,VALID,13,VALID,0.48058,
2002-05-08, 02:23:01,VALID,915.364,VALID,0,VALID,99.4331,VALID,-0.0509425,VALID,19.0866,VALID,52,VALID,0.229768,
2002-05-08, 02:24:01,VALID,915.327,VALID,0,VALID,99.4369,VALID,0.0169808,VALID,19.0891,VALID,34,VALID,0.956342,
2002-05-08, 02:25:00,VALID,915.309,VALID,0,VALID,99.4433,VALID,0.0169808,VALID,19.0951,VALID,19,VALID,1.04688,
2002-05-08, 02:26:00,VALID,915.308,VALID,0,VALID,99.442,VALID,0.0169808,VALID,19.1051,VALID,20,VALID,0.25514,
2002-05-08, 02:27:00,VALID,915.3,VALID,0,VALID,99.4573,VALID,0.0169808,VALID,19.109,VALID,2,VALID,0.351563,
2002-05-08, 02:28:00,VALID,915.288,VALID,0,VALID,99.4446,VALID,0,VALID,19.0891,VALID,265,VALID,0.442578,
2002-05-08, 02:29:00,VALID,915.262,VALID,0,VALID,99.4535,VALID,0,VALID,19.0824,VALID,104,VALID,0.266276,
2002-05-08, 02:30:00,VALID,915.236,VALID,0,VALID,99.4573,VALID,0.0339617,VALID,19.0887,VALID,11,VALID,0.204861,
2002-05-08, 02:31:00,VALID,915.252,VALID,0,VALID,99.4598,VALID,0,VALID,19.0986,VALID,243,VALID,0.25692,
2002-05-08, 02:32:00,VALID,915.251,VALID,0,VALID,99.4573,VALID,0.0339617,VALID,19.0954,VALID,105,VALID,0.314189,
2002-05-08, 02:33:00,VALID,915.218,VALID,0,VALID,99.4522,VALID,0.0169808,VALID,19.0661,VALID,68,VALID,0.35259,
2002-05-08, 02:34:00,VALID,915.224,VALID,0,VALID,99.456,VALID,-0.0169808,VALID,19.076,VALID,359,VALID,0.122533,
2002-05-08, 02:35:00,VALID,915.223,VALID,0,VALID,99.4738,VALID,0.0169808,VALID,19.0829,VALID,357,VALID,0,
2002-05-08, 02:36:00,VALID,915.195,VALID,0,VALID,99.4725,VALID,0,VALID,19.0862,VALID,357,VALID,0.0011489,
2002-05-08, 02:37:00,VALID,915.176,VALID,0.2,VALID,99.4764,VALID,0,VALID,19.0924,VALID,357,VALID,0.00168919,
2002-05-08, 02:38:00,VALID,915.17,VALID,0,VALID,99.4865,VALID,0,VALID,19.0956,VALID,9,VALID,0.160846,
2002-05-08, 02:39:00,VALID,915.165,VALID,0,VALID,99.4751,VALID,-0.0169808,VALID,19.0991,VALID,40,VALID,0.485938,
2002-05-08, 02:40:00,VALID,915.161,VALID,0,VALID,99.4878,VALID,0,VALID,19.1083,VALID,49,VALID,0.161058,
2002-05-08, 02:41:00,VALID,915.165,VALID,0,VALID,99.4992,VALID,0.0509425,VALID,19.1311,VALID,49,VALID,0,
2002-05-08, 02:42:00,VALID,915.14,VALID,0,VALID,99.4942,VALID,0.0169808,VALID,19.1346,VALID,97,VALID,0.16838,
2002-05-08, 02:43:00,VALID,915.126,VALID,0,VALID,99.4916,VALID,0,VALID,19.1046,VALID,170,VALID,0.151116,
2002-05-08, 02:44:00,VALID,915.127,VALID,0,VALID,99.4992,VALID,0,VALID,19.1214,VALID,199,VALID,0.23117,
2002-05-08, 02:45:00,VALID,915.1,VALID,0,VALID,99.4942,VALID,0.0169808,VALID,19.1088,VALID,199,VALID,0.198759,
2002-05-08, 02:46:00,VALID,915.093,VALID,0,VALID,99.4891,VALID,-0.0169808,VALID,19.0991,VALID,314,VALID,0.275825,
2002-05-08, 02:47:00,VALID,915.064,VALID,0,VALID,99.5081,VALID,-0.0169808,VALID,19.0921,VALID,32,VALID,0.227796,
2002-05-08, 02:48:00,VALID,915.034,VALID,0,VALID,99.4954,VALID,0,VALID,19.1085,VALID,40,VALID,0.594727,
2002-05-08, 02:49:00,VALID,915.008,VALID,0,VALID,99.5018,VALID,0,VALID,19.1115,VALID,43,VALID,0.287305,
2002-05-08, 02:50:00,VALID,915.028,VALID,0,VALID,99.5107,VALID,0,VALID,19.0988,VALID,43,VALID,0.0266927,
2002-05-08, 02:51:00,VALID,915.025,VALID,0,VALID,99.5183,VALID,-0.0169808,VALID,19.115,VALID,31,VALID,0.103516,
2002-05-08, 02:52:00,VALID,915.001,VALID,0,VALID,99.5196,VALID,-0.0169808,VALID,19.1376,VALID,29,VALID,0.280134,
2002-05-08, 02:53:00,VALID,915.027,VALID,0,VALID,99.5145,VALID,-0.0169808,VALID,19.1443,VALID,28,VALID,0.0215372,
2002-05-08, 02:54:00,VALID,915.017,VALID,0,VALID,99.5196,VALID,0,VALID,19.1341,VALID,168,VALID,0.312089,
2002-05-08, 02:55:00,VALID,914.979,VALID,0,VALID,99.5259,VALID,0,VALID,19.1378,VALID,261,VALID,0.264186,
2002-05-08, 02:56:00,VALID,914.975,VALID,0,VALID,99.5298,VALID,-0.0169808,VALID,19.1403,VALID,4,VALID,0.429688,
2002-05-08, 02:57:00,VALID,914.965,VALID,0,VALID,99.5247,VALID,-0.0169808,VALID,19.1545,VALID,111,VALID,0.100643,
2002-05-08, 02:58:00,VALID,914.974,VALID,0,VALID,99.5259,VALID,0,VALID,19.1309,VALID,71,VALID,0.116343,
2002-05-08, 02:59:00,VALID,914.975,VALID,0,VALID,99.5234,VALID,-0.0169808,VALID,19.1443,VALID,4,VALID,0.26057,
2002-05-08, 03:00:00,VALID,914.981,VALID,0,VALID,99.5348,VALID,0,VALID,19.1371,VALID,349,VALID,0.435937,
2002-05-08, 03:01:00,VALID,914.976,VALID,0,VALID,99.5387,VALID,0,VALID,19.147,VALID,15,VALID,0.708734,
2002-05-08, 03:02:00,VALID,914.982,VALID,0,VALID,99.5412,VALID,0,VALID,19.1697,VALID,23,VALID,1.4753,
2002-05-08, 03:03:00,VALID,914.98,VALID,0,VALID,99.5539,VALID,0,VALID,19.196,VALID,23,VALID,1.35629,
2002-05-08, 03:04:00,VALID,914.993,VALID,0,VALID,99.5463,VALID,0.0169808,VALID,19.205,VALID,22,VALID,0.983482,
2002-05-08, 03:05:00,VALID,915.021,VALID,0,VALID,99.5552,VALID,0,VALID,19.2144,VALID,21,VALID,0.637019,
2002-05-08, 03:06:00,VALID,915.022,VALID,0,VALID,99.5616,VALID,0.0169808,VALID,19.2343,VALID,19,VALID,0.863741,
2002-05-08, 03:07:00,VALID,915.011,VALID,0,VALID,99.5565,VALID,0,VALID,19.2251,VALID,20,VALID,0.373915,
2002-05-08, 03:08:00,VALID,915.001,VALID,0,VALID,99.5514,VALID,0,VALID,19.2248,VALID,9,VALID,0.806332,
2002-05-08, 03:09:00,VALID,914.995,VALID,0,VALID,99.5514,VALID,0,VALID,19.2151,VALID,2,VALID,1.06641,
2002-05-08, 03:10:00,VALID,914.992,VALID,0,VALID,99.559,VALID,0,VALID,19.2017,VALID,7,VALID,0.211523,
2002-05-08, 03:11:00,VALID,914.996,VALID,0,VALID,99.5577,VALID,0,VALID,19.2151,VALID,12,VALID,0.338976,
2002-05-08, 03:12:00,VALID,914.999,VALID,0,VALID,99.5603,VALID,0,VALID,19.2149,VALID,8,VALID,0.417752,
2002-05-08, 03:13:00,VALID,914.991,VALID,0,VALID,99.5654,VALID,-0.0169808,VALID,19.2449,VALID,8,VALID,0.3875,
2002-05-08, 03:14:00,VALID,914.992,VALID,0,VALID,99.5641,VALID,0,VALID,19.2544,VALID,22,VALID,0.194257,
2002-05-08, 03:15:00,VALID,915.012,VALID,0,VALID,99.5679,VALID,0,VALID,19.237,VALID,32,VALID,0.000822368,
2002-05-08, 03:16:00,VALID,915.004,VALID,0,VALID,99.5654,VALID,0,VALID,19.2671,VALID,32,VALID,0.083676,
2002-05-08, 03:17:00,VALID,914.987,VALID,0,VALID,99.5717,VALID,-0.0169808,VALID,19.2673,VALID,24,VALID,0.711509,
2002-05-08, 03:18:00,VALID,914.966,VALID,0,VALID,99.5679,VALID,0.0169808,VALID,19.2539,VALID,25,VALID,1.31664,
2002-05-08, 03:19:00,VALID,914.956,VALID,0,VALID,99.5666,VALID,0,VALID,19.2571,VALID,9,VALID,0.995144,
2002-05-08, 03:20:00,VALID,914.956,VALID,0,VALID,99.5616,VALID,0,VALID,19.2412,VALID,6,VALID,0.598575,
2002-05-08, 03:21:00,VALID,914.959,VALID,0,VALID,99.5654,VALID,0,VALID,19.2509,VALID,1,VALID,0.22567,
2002-05-08, 03:22:00,VALID,914.961,VALID,0,VALID,99.5654,VALID,-0.0169808,VALID,19.2375,VALID,1,VALID,0.0450721,
2002-05-08, 03:23:00,VALID,914.956,VALID,0,VALID,99.5603,VALID,-0.0169808,VALID,19.238,VALID,1,VALID,0.00105574,
2002-05-08, 03:24:00,VALID,914.936,VALID,0,VALID,99.559,VALID,0,VALID,19.2345,VALID,1,VALID,0.0051398,
2002-05-08, 03:25:00,VALID,914.919,VALID,0,VALID,99.5539,VALID,0,VALID,19.2345,VALID,10,VALID,0.15625,
2002-05-08, 03:26:00,VALID,914.918,VALID,0,VALID,99.559,VALID,-0.0169808,VALID,19.2442,VALID,22,VALID,0.548478,
2002-05-08, 03:27:00,VALID,914.881,VALID,0,VALID,99.5628,VALID,0,VALID,19.2474,VALID,11,VALID,0.0668658,
2002-05-08, 03:28:00,VALID,914.863,VALID,0,VALID,99.5743,VALID,0,VALID,19.2472,VALID,11,VALID,0.330946,
2002-05-08, 03:29:00,VALID,914.875,VALID,0,VALID,99.5704,VALID,-0.0169808,VALID,19.2444,VALID,7,VALID,0.492393,
2002-05-08, 03:30:00,VALID,914.888,VALID,0,VALID,99.5616,VALID,0,VALID,19.2442,VALID,8,VALID,0.615039,
2002-05-08, 03:31:00,VALID,914.896,VALID,0,VALID,99.5755,VALID,0,VALID,19.2539,VALID,21,VALID,0.839648,
2002-05-08, 03:32:00,VALID,914.908,VALID,0,VALID,99.5692,VALID,0,VALID,19.2671,VALID,27,VALID,0.700304,
2002-05-08, 03:33:00,VALID,914.898,VALID,0,VALID,99.5679,VALID,-0.0169808,VALID,19.2735,VALID,22,VALID,0.63954,
2002-05-08, 03:34:00,VALID,914.898,VALID,0,VALID,99.5832,VALID,0,VALID,19.2934,VALID,33,VALID,0.712946,
2002-05-08, 03:35:00,VALID,914.889,VALID,0,VALID,99.5794,VALID,-0.0339617,VALID,19.3021,VALID,29,VALID,0.559122,
2002-05-08, 03:36:00,VALID,914.858,VALID,0,VALID,99.5844,VALID,0,VALID,19.3023,VALID,21,VALID,0.690584,